TimeEST,TemperatureF,Dew PointF,Humidity,Sea Level PressureIn,VisibilityMPH,Wind Direction,Wind SpeedMPH,Gust SpeedMPH,PrecipitationIn,Events,Conditions,WindDirDegrees,DateUTC
12:51 AM,33.1,23.0,66,30.31,10.0,ENE,12.7,-,N/A,,Overcast,60,2013-02-08 05:51:00
1:51 AM,33.1,23.0,66,30.29,10.0,ENE,11.5,-,N/A,,Overcast,60,2013-02-08 06:51:00
2:51 AM,33.1,24.1,70,30.26,10.0,ENE,12.7,-,N/A,,Overcast,60,2013-02-08 07:51:00
3:51 AM,33.1,23.0,66,30.22,10.0,ENE,15.0,-,N/A,,Overcast,70,2013-02-08 08:51:00
4:51 AM,33.1,24.1,70,30.20,10.0,ENE,12.7,-,N/A,,Overcast,60,2013-02-08 09:51:00
5:51 AM,33.1,28.0,82,30.17,10.0,NE,19.6,25.3,N/A,,Overcast,50,2013-02-08 10:51:00
6:27 AM,33.8,28.4,81,30.15,2.0,ENE,18.4,-,0.00,Snow,Light Snow,60,2013-02-08 11:27:00
6:51 AM,32.0,28.9,88,30.14,3.0,ENE,17.3,-,0.00,Snow,Light Snow,60,2013-02-08 11:51:00
7:04 AM,32.0,28.4,87,30.14,1.0,ENE,16.1,-,0.00,Snow,Light Snow,60,2013-02-08 12:04:00
7:33 AM,33.8,30.2,87,30.13,1.0,ENE,16.1,-,0.01,Snow,Light Snow,60,2013-02-08 12:33:00
7:49 AM,33.8,30.2,87,30.12,2.0,ENE,16.1,-,0.02,Snow,Light Snow,60,2013-02-08 12:49:00
7:51 AM,35.1,30.9,85,30.12,2.0,ENE,15.0,-,0.02,Snow,Light Snow,60,2013-02-08 12:51:00
8:51 AM,35.1,30.9,85,30.09,2.5,ENE,16.1,-,0.01,Snow,Light Snow,60,2013-02-08 13:51:00
9:51 AM,36.0,30.9,82,30.04,4.0,ENE,20.7,29.9,0.02,Snow,Light Snow,60,2013-02-08 14:51:00
10:51 AM,34.0,30.9,89,29.99,5.0,ENE,25.3,29.9,0.06,Rain,Light Rain,60,2013-02-08 15:51:00
11:20 AM,33.8,30.2,87,29.96,6.0,ENE,25.3,-,0.02,Rain,Rain,60,2013-02-08 16:20:00
11:41 AM,35.6,30.2,81,29.94,4.0,ENE,24.2,32.2,0.04,Rain,Light Ice Pellets,60,2013-02-08 16:41:00
11:51 AM,35.1,30.9,85,29.94,5.0,ENE,26.5,38.0,0.04,Rain,Light Rain,60,2013-02-08 16:51:00
12:51 PM,33.1,30.0,89,29.87,3.0,NE,27.6,36.8,0.06,Rain,Light Rain,50,2013-02-08 17:51:00
1:51 PM,33.1,30.0,89,29.81,5.0,NE,26.5,38.0,0.03,Rain-Snow,Light Snow,50,2013-02-08 18:51:00
2:00 PM,33.8,30.2,87,29.80,1.5,NE,27.6,38.0,0.00,Snow,Light Snow,50,2013-02-08 19:00:00
2:30 PM,33.8,30.2,87,29.76,2.0,NE,26.5,38.0,0.02,Snow,Light Snow,50,2013-02-08 19:30:00
2:51 PM,33.1,30.0,89,29.75,2.0,NE,28.8,39.1,0.02,Snow,Light Snow,50,2013-02-08 19:51:00
3:03 PM,33.8,30.2,87,29.74,1.2,NE,25.3,40.3,0.01,Snow,Light Snow,50,2013-02-08 20:03:00
3:12 PM,33.8,30.2,87,29.74,1.0,NE,28.8,39.1,0.03,Snow,Light Snow,50,2013-02-08 20:12:00
3:32 PM,33.8,30.2,87,29.72,1.5,NE,24.2,36.8,0.05,Snow,Light Snow,40,2013-02-08 20:32:00
3:42 PM,33.8,30.2,87,29.72,2.0,NE,26.5,36.8,0.06,Snow,Light Snow,40,2013-02-08 20:42:00
3:51 PM,33.1,30.0,89,29.72,2.0,NE,26.5,35.7,0.06,Snow,Light Snow,40,2013-02-08 20:51:00
4:04 PM,33.8,30.2,87,29.72,1.5,NE,21.9,29.9,0.02,Snow,Light Snow,40,2013-02-08 21:04:00
4:12 PM,33.8,30.2,87,29.71,1.2,NE,20.7,28.8,0.02,Snow,Light Snow,40,2013-02-08 21:12:00
4:18 PM,33.8,30.2,87,29.71,1.0,NE,20.7,28.8,0.03,Snow,Light Snow,40,2013-02-08 21:18:00
4:27 PM,33.8,30.2,87,29.71,0.8,NNE,21.9,32.2,0.04,Snow,Light Snow,30,2013-02-08 21:27:00
4:41 PM,33.8,30.2,87,29.70,0.5,NNE,17.3,31.1,0.07,Fog-Snow,Snow,30,2013-02-08 21:41:00
4:51 PM,33.1,30.0,89,29.70,0.5,NNE,17.3,25.3,0.08,Fog-Snow,Snow,30,2013-02-08 21:51:00
4:59 PM,33.8,30.2,87,29.69,0.8,NNE,18.4,26.5,0.01,Snow,Light Snow,30,2013-02-08 21:59:00
5:23 PM,33.8,30.2,87,29.68,0.8,NNE,17.3,25.3,0.02,Snow,Light Snow,30,2013-02-08 22:23:00
5:51 PM,33.1,30.0,89,29.67,0.8,NNE,17.3,31.1,0.05,Snow,Light Snow,20,2013-02-08 22:51:00
5:57 PM,33.8,30.2,87,29.67,0.8,NNE,18.4,31.1,0.00,Snow,Light Snow,20,2013-02-08 22:57:00
6:11 PM,33.8,30.2,87,29.66,0.8,NNE,18.4,26.5,0.01,Snow,Light Snow,20,2013-02-08 23:11:00
6:33 PM,32.0,28.4,87,29.65,0.8,NNE,17.3,25.3,0.02,Snow,Light Snow,20,2013-02-08 23:33:00
6:51 PM,32.0,28.0,85,29.65,2.0,NNE,19.6,27.6,0.03,Snow,Light Snow,20,2013-02-08 23:51:00
7:14 PM,32.0,28.4,87,29.65,1.5,NNE,17.3,27.6,0.01,Snow,Light Snow,20,2013-02-09 00:14:00
7:51 PM,30.9,28.0,89,29.64,1.5,North,18.4,26.5,0.04,Snow,Light Snow,10,2013-02-09 00:51:00
8:33 PM,30.2,26.6,86,29.63,2.0,North,18.4,25.3,0.02,Snow,Light Snow,360,2013-02-09 01:33:00
8:51 PM,30.9,27.0,85,29.64,2.0,North,13.8,25.3,0.03,Snow,Light Snow,360,2013-02-09 01:51:00
9:51 PM,30.9,27.0,85,29.66,2.0,NNW,15.0,23.0,0.02,Snow,Light Snow,340,2013-02-09 02:51:00
10:04 PM,30.2,28.4,93,29.67,1.0,NNW,15.0,24.2,0.00,Snow,Light Snow,340,2013-02-09 03:04:00
10:19 PM,30.2,26.6,86,29.68,1.0,NNW,17.3,23.0,0.01,Snow,Light Snow,330,2013-02-09 03:19:00
10:43 PM,30.2,26.6,86,29.69,0.8,NNW,17.3,25.3,0.03,Snow,Light Snow,340,2013-02-09 03:43:00
10:51 PM,28.9,27.0,92,29.70,0.8,NNW,15.0,25.3,0.04,Snow,Light Snow,330,2013-02-09 03:51:00
11:25 PM,28.4,26.6,93,29.73,0.5,NNW,19.6,25.3,0.03,Fog-Snow,Snow,330,2013-02-09 04:25:00
11:51 PM,28.0,25.0,88,29.74,0.5,NNW,21.9,26.5,0.05,Fog-Snow,Snow,340,2013-02-09 04:51:00